Terminal Aerodrome Forecast
Issued by NWS Milwaukee/Sullivan, WI

Home | Current Version | Previous Version | Text Only | Print | Product List | Glossary On
Versions: 1 2 3 4 5 6 7 8 9 10 11 12 13 14 15 16 17 18 19 20 21 22 23 24 25 26 27 28 29 30 31 32 33 34 35 36 37 38 39 40 41 42 43 44 45 46 47 48 49 50
000
FTUS43 KMKX 282320
TAFMKE
TAF
KMKE 282320Z 0100/0206 17006KT P6SM BKN090
     FM010500 19006KT 4SM -SN SCT020 OVC040
     FM010800 20006KT P6SM OVC040
     FM011900 24008KT P6SM OVC130
     FM012300 25009KT P6SM OVC025
     FM020200 27009KT P6SM BKN110=

USA.gov is the U.S. government's official web portal to all federal, state and local government web resources and services.